Montreal Mirabel, Quebec

5:50 AM EDT on May 25, 2018 (GMT -0400)
Montreal Mirabel

Weather History for CYMX - June, 2013

Change the Weather History Date:

Friday, June 28, 2013

  Actual Average Record
Temperature  
Mean Temperature 56 °F -  
Max Temperature 57 °F 75 °F 89 °F (2005)
Min Temperature 55 °F 56 °F 46 °F (2004)
Degree Days  
Heating Degree Days 9    
Growing Degree Days 6 (Base 50)    
Moisture  
Dew Point 55 °F    
Average Humidity 96    
Maximum Humidity 100    
Minimum Humidity 88    
Precipitation  
Precipitation 0.00 in - - ()
Sea Level Pressure  
Sea Level Pressure 29.59 in    
Wind  
Wind Speed 8 mph ()    
Max Wind Speed 15 mph    
Max Gust Speed 30 mph    
Visibility 6.6 miles    
Events Rain    
Averages and records for this station are not official NWS values.
T = Trace of Precipitation, MM = Missing Value Source: Averaged Metar Reports

Daily Weather History Graph

Daily Weather History Graph

Search for Another Location

Airport or City:

Astronomy

Jun. 28, 2013 Rise Set
Actual Time 5:09 AM EDT 8:49 PM EDT
Civil Twilight 4:31 AM EDT 9:27 PM EDT
Nautical Twilight 3:40 AM EDT 10:18 PM EDT
Astronomical Twilight 2:30 AM EDT 11:27 PM EDT
Moon 11:55 PM EDT (6/28) 11:33 AM EDT (6/28)
Length of Visible Light 16h 56m
Length of Day
15h 40m
Waning Gibbous, 66% of the Moon is Illuminated
Jun 28
Waning Gibbous
Jun 30
Last Quarter
Jul 8
New
Jul 15
First Quarter
Jul 22
Full

Hourly Weather History & Observations

Time (EDT) Temp. Dew Point Humidity Pressure Visibility Wind Dir Wind Speed Gust Speed Precip Events Conditions
12:00 AM 57.2 °F 53.6 °F 88% 29.80 in 15.0 mi NE 11.5 mph 19.6 mph N/A   Mostly Cloudy
1:00 AM 57.2 °F 53.6 °F 88% 29.79 in 15.0 mi ENE 9.2 mph - N/A   Overcast
2:00 AM 57.2 °F 53.6 °F 88% 29.75 in 15.0 mi NE 11.5 mph 23.0 mph N/A   Overcast
3:00 AM 55.4 °F 53.6 °F 94% 29.73 in 15.0 mi ENE 8.1 mph 20.7 mph N/A   Overcast
4:00 AM 55.4 °F 53.6 °F 94% 29.71 in 15.0 mi NE 12.7 mph 25.3 mph N/A   Overcast
5:00 AM 55.4 °F 53.6 °F 94% 29.69 in 10.0 mi NE 12.7 mph 20.7 mph N/A   Light Drizzle
5:20 AM 55.4 °F 53.6 °F 94% 29.68 in 6.0 mi NE 9.2 mph 24.2 mph N/A Rain Light Rain
6:00 AM 55.4 °F 53.6 °F 94% 29.68 in 10.0 mi NNE 10.4 mph 19.6 mph N/A Rain Light Rain
7:00 AM 55.4 °F 55.4 °F 100% 29.66 in 10.0 mi NE 6.9 mph 20.7 mph N/A Rain Light Rain
8:00 AM 55.4 °F 55.4 °F 100% 29.64 in 4.0 mi NE 6.9 mph - N/A Rain Light Rain
9:00 AM 55.4 °F 55.4 °F 100% 29.62 in 6.0 mi NNE 11.5 mph 20.7 mph N/A Rain Light Rain
10:00 AM 57.2 °F 55.4 °F 94% 29.57 in 6.0 mi NNE 9.2 mph 23.0 mph N/A Rain Light Rain
11:00 AM 57.2 °F 57.2 °F 100% 29.55 in 6.0 mi NNE 10.4 mph 21.9 mph N/A Rain Light Rain
12:00 PM 57.2 °F 55.4 °F 94% 29.51 in 2.5 mi NE 11.5 mph 24.2 mph N/A Rain Light Rain
1:00 PM 57.2 °F 55.4 °F 94% 29.50 in 2.5 mi NE 15.0 mph 29.9 mph N/A Rain Light Rain
2:00 PM 57.2 °F 55.4 °F 94% 29.48 in 2.0 mi NE 10.4 mph 21.9 mph N/A Rain Light Rain
3:00 PM 57.2 °F 55.4 °F 94% 29.48 in 2.0 mi NE 4.6 mph 18.4 mph N/A Rain Light Rain
4:00 PM 57.2 °F 55.4 °F 94% 29.48 in 2.5 mi NNE 10.4 mph - N/A Rain Light Rain
5:00 PM 57.2 °F 55.4 °F 94% 29.48 in 3.0 mi NNE 6.9 mph 18.4 mph N/A Rain Light Rain
6:00 PM 57.2 °F 55.4 °F 94% 29.48 in 2.0 mi North 5.8 mph - N/A Rain Light Rain
7:00 PM 57.2 °F 57.2 °F 100% 29.49 in 2.0 mi WNW 4.6 mph - N/A Rain Light Rain
7:17 PM 57.2 °F 57.2 °F 100% 29.50 in 2.0 mi WNW 2.3 mph - N/A   Light Drizzle
8:00 PM 57.2 °F 57.2 °F 100% 29.50 in 2.0 mi West 3.5 mph - N/A   Light Drizzle
9:00 PM 57.2 °F 57.2 °F 100% 29.51 in 5.0 mi SW 2.3 mph - N/A   Light Drizzle
10:00 PM 57.2 °F 57.2 °F 100% 29.50 in 8.0 mi West 2.3 mph - N/A   Mostly Cloudy
11:00 PM 55.4 °F 55.4 °F 100% 29.51 in 8.0 mi South 3.5 mph - N/A   Overcast
11:52 PM 57.2 °F 57.2 °F 100% 29.51 in 3.0 mi SSE 3.5 mph - N/A   Overcast